Location: �terpigny
(49.8910°N, 2.9249°E)
Time: 05:25:26
(UTC+00:00)

Cosmos 332 Rocket - Pass Details

Date: 30 May 2022
Orbit: 681 x 703 km, 74.0° (Epoch: 06 July)

Event Time Altitude Azimuth Distance (km) Brightness Sun altitude
Exits shadow 22:51:45 14° 111° (ESE) 1,894 5.7 -17.2°
Maximum altitude 22:52:54 15° 95° (E) 1,835 5.8 -17.3°
Drops below altitude 10° 22:55:27 10° 62° (ENE) 2,130 6.5 -17.4°
Sets 22:58:43 0° 39° (NE) 3,053 7.7 -17.5°
